DW7259 Weather Reports


time (UTC)temp
C
wind
direction
speed
KPH
gust
KPH
rain 1hr
cm
rain 24hr
cm
rain mn
cm
humidity
%
barometer
mb
20260503060104 10 18 0.0 0.0 0.00 0.05 0.05 79 1006.6
20260503054537 10 18 0.0 0.0 0.00 0.05 0.05 80 1007.0
20260503053032 10 18 0.0 0.0 0.00 0.05 0.05 80 1007.2
20260503051528 10 18 0.0 0.0 0.00 0.05 0.05 80 1007.2
20260503050033 11 18 0.0 0.0 0.00 0.05 0.05 79 1007.1
20260503044526 12 360 0.0 6.4 0.00 0.05 0.05 72 1007.3
20260503043038 12 360 0.0 0.0 0.00 0.05 0.05 70 1007.5
20260503041526 12 183 0.0 0.0 0.00 0.05 0.05 69 1006.8
20260503040025 12 360 4.8 8.0 0.00 0.05 0.05 70 1006.7
20260503034524 12 184 8.0 14.5 0.00 0.05 0.05 70 1006.8
20260503033123 12 178 3.2 12.9 0.00 0.05 0.05 69 1006.9
20260503031522 12 360 0.0 4.8 0.00 0.05 0.05 67 1006.5
20260503030022 13 360 0.0 0.0 0.00 0.05 0.05 65 1006.2
20260503024526 13 360 0.0 0.0 0.00 0.05 0.05 65 1005.7
20260503023021 13 360 0.0 6.4 0.00 0.05 0.05 66 1005.5
20260503021538 13 360 1.6 9.7 0.03 0.05 0.05 66 1005.7
20260503020020 13 178 0.0 4.8 0.03 0.05 0.05 65 1005.5
20260503014519 13 360 0.0 6.4 0.03 0.05 0.05 66 1005.4
20260503013019 13 156 0.0 4.8 0.05 0.05 0.05 66 1005.5
20260503011517 13 156 0.0 0.0 0.03 0.03 0.03 67 1005.8
20260503010015 14 360 0.0 0.0 0.03 0.03 0.03 64 1005.9
20260503004513 15 156 3.2 19.3 0.03 0.03 0.03 55 1005.8
20260503003014 17 360 11.3 22.5 0.00 0.00 0.00 37 1005.5
20260503001511 18 360 1.6 8.0 0.00 0.00 0.00 37 1004.4
20260503000011 18 360 4.8 16.1 0.00 0.00 0.00 36 1004.3
20260502234509 19 360 9.7 17.7 0.00 0.00 0.00 34 1004.2
20260502233010 20 355 0.0 4.8 0.00 0.00 0.00 34 1003.7
20260502231513 21 360 0.0 6.4 0.00 0.00 0.00 32 1003.9
20260502230006 21 360 4.8 9.7 0.00 0.00 0.00 30 1004.1
20260502224505 20 360 0.0 9.7 0.00 0.00 0.00 28 1004.1
20260502223004 20 360 6.4 20.9 0.00 0.00 0.00 28 1004.3
20260502221503 20 309 1.6 9.7 0.00 0.00 0.00 30 1004.3
20260502220101 19 307 3.2 8.0 0.00 0.00 0.00 32 1004.6
20260502214558 19 305 1.6 11.3 0.00 0.00 0.00 33 1004.9
20260502213107 20 338 17.7 40.2 0.00 0.00 0.00 28 1005.3
20260502211555 20 302 1.6 11.3 0.00 0.00 0.00 31 1005.3
20260502210054 20 302 3.2 11.3 0.00 0.00 0.00 31 1005.4
20260502204557 20 302 3.2 12.9 0.00 0.00 0.00 29 1005.4
20260502203053 20 302 0.0 11.3 0.00 0.00 0.00 31 1005.5
20260502201552 20 302 1.6 9.7 0.00 0.00 0.00 30 1005.5
20260502200110 20 302 4.8 12.9 0.00 0.00 0.00 30 1005.7
20260502194605 20 301 4.8 14.5 0.00 0.00 0.00 29 1005.8
20260502193049 20 297 1.6 14.5 0.00 0.00 0.00 29 1005.7
20260502191553 20 293 1.6 17.7 0.00 0.00 0.00 31 1005.8
20260502190045 20 293 3.2 11.3 0.00 0.00 0.00 31 1006.0
20260502184545 20 296 6.4 24.1 0.00 0.00 0.00 30 1006.0
20260502183047 20 311 8.0 20.9 0.00 0.00 0.00 30 1006.1
20260502181536 19 300 3.2 11.3 0.00 0.00 0.00 35 1006.3
20260502163020 15 300 1.6 6.4 0.00 0.00 0.00 40 1006.7
20260502161513 15 300 1.6 4.8 0.00 0.00 0.00 42 1006.7
20260502151612 11 300 0.0 0.0 0.00 0.00 0.00 44 1006.8
20260502150157 11 300 0.0 0.0 0.00 0.00 0.00 44 1006.9
20260502123036 8 300 0.0 1.6 0.00 0.00 0.00 42 1006.4
20260502121536 8 300 0.0 0.0 0.00 0.00 0.00 44 1006.3
20260502114534 9 300 0.0 0.0 0.00 0.00 0.00 42 1006.4
20260502113031 9 300 0.0 0.0 0.00 0.00 0.00 42 1006.3
20260502111526 10 300 0.0 3.2 0.00 0.00 0.00 37 1006.4
20260502110025 10 300 0.0 4.8 0.00 0.00 0.00 37 1006.3
20260502104524 10 300 0.0 0.0 0.00 0.00 0.00 36 1006.4
20260502103052 10 300 0.0 4.8 0.00 0.00 0.00 35 1006.4
20260502101520 11 360 4.8 9.7 0.00 0.00 0.00 33 1006.4
20260502091514 11 360 3.2 8.0 0.00 0.00 0.00 31 1006.6